Time,TemperatureF,DewpointF,PressureIn,WindDirection,WindDirectionDegrees,WindSpeedMPH,WindSpeedGustMPH,Humidity,HourlyPrecipIn,Conditions,Clouds,dailyrainin,SoftwareType,DateUTC
2015-05-24 00:01:00,62.3,43.9,30.02,NNW,338,0.0,0.0,51,0.00,,,0.00,WUHU216HW,2015-05-24 05:01:00,
2015-05-24 00:06:00,62.3,44.4,30.02,NNW,338,0.0,0.0,52,0.00,,,0.00,WUHU216HW,2015-05-24 05:06:00,
2015-05-24 00:11:00,62.3,43.9,30.02,NNW,338,0.0,0.0,51,0.00,,,0.00,WUHU216HW,2015-05-24 05:11:00,
2015-05-24 00:16:00,62.1,43.7,30.01,NNW,338,0.0,0.0,51,0.00,,,0.00,WUHU216HW,2015-05-24 05:16:00,
2015-05-24 00:21:00,61.9,44.1,30.01,NNW,338,0.0,0.0,52,0.00,,,0.00,WUHU216HW,2015-05-24 05:21:00,
2015-05-24 00:26:00,61.9,44.1,30.01,NNW,338,0.0,0.0,52,0.00,,,0.00,WUHU216HW,2015-05-24 05:26:00,
2015-05-24 00:31:00,61.9,44.1,30.01,NNW,338,0.0,0.0,52,0.00,,,0.00,WUHU216HW,2015-05-24 05:31:00,
2015-05-24 00:36:00,61.9,44.1,30.01,NNW,338,0.0,0.0,52,0.00,,,0.00,WUHU216HW,2015-05-24 05:36:00,
2015-05-24 00:41:00,61.9,44.1,30.01,NNW,338,0.0,0.0,52,0.00,,,0.00,WUHU216HW,2015-05-24 05:41:00,
2015-05-24 00:46:00,61.9,43.6,30.01,NNW,338,0.0,0.0,51,0.00,,,0.00,WUHU216HW,2015-05-24 05:46:00,
2015-05-24 00:51:00,61.9,43.6,30.01,NNW,338,0.0,0.0,51,0.00,,,0.00,WUHU216HW,2015-05-24 05:51:00,
2015-05-24 00:56:00,61.9,43.6,30.01,NNW,338,0.0,0.0,51,0.00,,,0.00,WUHU216HW,2015-05-24 05:56:00,
2015-05-24 01:01:00,61.9,43.6,30.00,NNW,338,0.0,0.0,51,0.00,,,0.00,WUHU216HW,2015-05-24 06:01:00,
2015-05-24 01:06:00,61.9,43.6,30.00,NNW,338,0.0,0.0,51,0.00,,,0.00,WUHU216HW,2015-05-24 06:06:00,
2015-05-24 01:11:00,61.6,43.3,30.00,NNW,338,0.0,0.0,51,0.00,,,0.00,WUHU216HW,2015-05-24 06:11:00,
2015-05-24 01:16:00,61.6,43.7,30.00,NNW,338,0.0,0.0,52,0.00,,,0.00,WUHU216HW,2015-05-24 06:16:00,
2015-05-24 01:21:00,61.4,43.6,30.00,NNW,338,0.0,0.0,52,0.00,,,0.00,WUHU216HW,2015-05-24 06:21:00,
2015-05-24 01:26:00,61.4,43.6,30.00,NNW,338,0.0,0.0,52,0.00,,,0.00,WUHU216HW,2015-05-24 06:26:00,
2015-05-24 01:31:00,61.2,43.4,30.00,NNW,338,0.0,0.0,52,0.00,,,0.00,WUHU216HW,2015-05-24 06:31:00,
2015-05-24 01:36:00,60.8,43.6,30.00,NNW,338,0.0,0.0,53,0.00,,,0.00,WUHU216HW,2015-05-24 06:36:00,
2015-05-24 01:41:00,60.7,43.4,30.00,NNW,338,0.0,0.0,53,0.00,,,0.00,WUHU216HW,2015-05-24 06:41:00,
2015-05-24 01:46:00,60.5,43.8,30.00,NNW,338,0.0,0.0,54,0.00,,,0.00,WUHU216HW,2015-05-24 06:46:00,
2015-05-24 01:51:00,60.3,43.6,30.00,NNW,338,0.0,0.0,54,0.00,,,0.00,WUHU216HW,2015-05-24 06:51:00,
2015-05-24 01:56:00,60.1,43.8,30.00,NNW,338,0.0,0.0,55,0.00,,,0.00,WUHU216HW,2015-05-24 06:56:00,
2015-05-24 02:01:00,60.1,43.8,30.01,NNW,338,0.0,0.0,55,0.00,,,0.00,WUHU216HW,2015-05-24 07:01:00,
2015-05-24 02:06:00,60.1,44.4,30.01,NNW,338,0.0,0.0,56,0.00,,,0.00,WUHU216HW,2015-05-24 07:06:00,
2015-05-24 02:11:00,60.1,44.4,30.01,NNW,338,0.0,0.0,56,0.00,,,0.00,WUHU216HW,2015-05-24 07:11:00,
2015-05-24 02:16:00,60.1,44.4,30.01,NNW,338,0.0,0.0,56,0.00,,,0.00,WUHU216HW,2015-05-24 07:16:00,
2015-05-24 02:21:00,60.1,44.8,30.01,NNW,338,0.0,0.0,57,0.00,,,0.00,WUHU216HW,2015-05-24 07:21:00,
2015-05-24 02:26:00,59.9,44.6,30.01,NNW,338,0.0,0.0,57,0.00,,,0.00,WUHU216HW,2015-05-24 07:26:00,
2015-05-24 02:31:00,59.8,44.5,30.01,NNW,338,0.0,0.0,57,0.00,,,0.00,WUHU216HW,2015-05-24 07:31:00,
2015-05-24 02:36:00,59.8,44.9,30.01,NNW,338,0.0,0.0,58,0.00,,,0.00,WUHU216HW,2015-05-24 07:36:00,
2015-05-24 02:41:00,59.8,44.9,30.02,NNW,338,0.0,0.0,58,0.00,,,0.00,WUHU216HW,2015-05-24 07:41:00,
2015-05-24 02:46:00,59.6,44.7,30.02,NNW,338,0.0,0.0,58,0.00,,,0.00,WUHU216HW,2015-05-24 07:46:00,
2015-05-24 02:51:00,59.6,44.7,30.02,NNW,338,0.0,0.0,58,0.00,,,0.00,WUHU216HW,2015-05-24 07:51:00,
2015-05-24 02:56:00,59.6,44.7,30.02,NNW,338,0.0,0.0,58,0.00,,,0.00,WUHU216HW,2015-05-24 07:56:00,
2015-05-24 03:01:00,59.6,44.7,30.02,NNW,338,0.0,0.0,58,0.00,,,0.00,WUHU216HW,2015-05-24 08:01:00,
2015-05-24 03:06:00,59.4,44.7,30.02,NNW,338,0.0,0.0,58,0.00,,,0.00,WUHU216HW,2015-05-24 08:06:00,
2015-05-24 03:11:00,59.4,45.1,30.02,NNW,338,0.0,0.0,59,0.00,,,0.00,WUHU216HW,2015-05-24 08:11:00,
2015-05-24 03:16:00,59.4,45.1,30.03,NNW,338,0.0,0.0,59,0.00,,,0.00,WUHU216HW,2015-05-24 08:16:00,
2015-05-24 03:21:00,59.4,45.1,30.03,NNW,338,0.0,0.0,59,0.00,,,0.00,WUHU216HW,2015-05-24 08:21:00,
2015-05-24 03:26:00,59.4,45.5,30.03,NNW,338,0.0,0.0,60,0.00,,,0.00,WUHU216HW,2015-05-24 08:26:00,
2015-05-24 03:31:00,59.4,45.5,30.03,NNW,338,0.0,0.0,60,0.00,,,0.00,WUHU216HW,2015-05-24 08:31:00,
2015-05-24 03:36:00,59.4,45.5,30.03,NNW,338,0.0,0.0,60,0.00,,,0.00,WUHU216HW,2015-05-24 08:36:00,
2015-05-24 03:41:00,59.4,46.0,30.03,NNW,338,0.0,0.0,61,0.00,,,0.00,WUHU216HW,2015-05-24 08:41:00,
2015-05-24 03:46:00,59.4,46.0,30.02,NNW,338,0.0,0.0,61,0.00,,,0.00,WUHU216HW,2015-05-24 08:46:00,
2015-05-24 03:51:00,59.4,46.0,30.02,NNW,338,0.0,0.0,61,0.00,,,0.00,WUHU216HW,2015-05-24 08:51:00,
2015-05-24 03:56:00,59.4,46.0,30.02,NNW,338,0.0,0.0,61,0.00,,,0.00,WUHU216HW,2015-05-24 08:56:00,
2015-05-24 04:01:00,59.4,46.4,30.02,NNW,338,0.0,0.0,62,0.00,,,0.00,WUHU216HW,2015-05-24 09:01:00,
2015-05-24 04:06:00,59.2,46.2,30.02,NNW,338,0.0,0.0,62,0.00,,,0.00,WUHU216HW,2015-05-24 09:06:00,
2015-05-24 04:11:00,59.2,46.2,30.02,NNW,338,0.0,0.0,62,0.00,,,0.00,WUHU216HW,2015-05-24 09:11:00,
2015-05-24 04:16:00,59.0,46.0,30.02,NNW,338,0.0,0.0,62,0.00,,,0.00,WUHU216HW,2015-05-24 09:16:00,
2015-05-24 04:21:00,59.0,46.5,30.02,NNW,338,0.0,0.0,63,0.00,,,0.00,WUHU216HW,2015-05-24 09:21:00,
2015-05-24 04:26:00,58.9,46.3,30.02,NNW,338,0.0,0.0,63,0.00,,,0.00,WUHU216HW,2015-05-24 09:26:00,
2015-05-24 04:31:00,58.7,46.5,30.02,NNW,338,0.0,0.0,64,0.00,,,0.00,WUHU216HW,2015-05-24 09:31:00,
2015-05-24 04:36:00,58.7,46.5,30.02,NNW,338,0.0,0.0,64,0.00,,,0.00,WUHU216HW,2015-05-24 09:36:00,
2015-05-24 04:41:00,58.5,47.2,30.01,NNW,338,0.0,0.0,66,0.00,,,0.00,WUHU216HW,2015-05-24 09:41:00,
2015-05-24 04:46:00,58.3,47.0,30.01,NNW,338,0.0,0.0,66,0.00,,,0.00,WUHU216HW,2015-05-24 09:46:00,
2015-05-24 04:51:00,58.3,47.0,30.01,NNW,338,0.0,0.0,66,0.00,,,0.00,WUHU216HW,2015-05-24 09:51:00,
2015-05-24 04:56:00,58.1,46.8,30.01,NNW,338,0.0,0.0,66,0.00,,,0.00,WUHU216HW,2015-05-24 09:56:00,
2015-05-24 05:01:00,58.0,47.1,30.01,NNW,338,0.0,0.0,67,0.00,,,0.00,WUHU216HW,2015-05-24 10:01:00,
2015-05-24 05:06:00,58.0,47.1,30.01,NNW,338,0.0,0.0,67,0.00,,,0.00,WUHU216HW,2015-05-24 10:06:00,
2015-05-24 05:11:00,57.8,46.9,30.01,NNW,338,0.0,0.0,67,0.00,,,0.00,WUHU216HW,2015-05-24 10:11:00,
2015-05-24 05:16:00,58.0,47.1,30.01,NNW,338,0.0,0.0,67,0.00,,,0.00,WUHU216HW,2015-05-24 10:16:00,
2015-05-24 05:21:00,58.0,47.1,30.01,NW,315,0.0,0.0,67,0.00,,,0.00,WUHU216HW,2015-05-24 10:21:00,
2015-05-24 05:26:00,58.0,47.1,30.00,NW,315,0.0,0.0,67,0.00,,,0.00,WUHU216HW,2015-05-24 10:26:00,
2015-05-24 05:31:00,58.0,47.1,30.00,NW,315,0.0,0.0,67,0.00,,,0.00,WUHU216HW,2015-05-24 10:31:00,
2015-05-24 05:36:00,58.0,47.4,30.00,ENE,68,0.0,0.0,68,0.00,,,0.00,WUHU216HW,2015-05-24 10:36:00,
2015-05-24 05:41:00,58.1,47.6,30.00,North,0,0.0,0.0,68,0.00,,,0.00,WUHU216HW,2015-05-24 10:41:00,
2015-05-24 05:46:00,58.1,47.6,30.00,NNW,338,0.0,0.0,68,0.00,,,0.00,WUHU216HW,2015-05-24 10:46:00,
2015-05-24 05:51:00,58.3,47.8,30.00,NNW,338,0.0,0.0,68,0.00,,,0.00,WUHU216HW,2015-05-24 10:51:00,
2015-05-24 05:56:00,58.3,47.8,30.00,NNW,338,0.0,0.0,68,0.00,,,0.00,WUHU216HW,2015-05-24 10:56:00,
2015-05-24 06:06:00,58.7,48.5,29.99,North,0,0.0,0.0,69,0.00,,,0.00,WUHU216HW,2015-05-24 11:06:00,
2015-05-24 06:11:00,58.7,48.5,29.99,NNW,338,0.0,0.0,69,0.00,,,0.00,WUHU216HW,2015-05-24 11:11:00,
2015-05-24 06:16:00,58.7,48.2,29.99,NNW,338,0.0,0.0,68,0.00,,,0.00,WUHU216HW,2015-05-24 11:16:00,
2015-05-24 06:21:00,58.9,48.7,29.99,NNW,338,0.0,0.0,69,0.00,,,0.00,WUHU216HW,2015-05-24 11:21:00,
2015-05-24 06:26:00,58.9,48.7,29.99,NNW,338,0.0,0.0,69,0.00,,,0.00,WUHU216HW,2015-05-24 11:26:00,
2015-05-24 06:31:00,59.0,48.9,30.00,NNW,338,0.0,0.0,69,0.00,,,0.00,WUHU216HW,2015-05-24 11:31:00,
2015-05-24 06:36:00,59.0,48.9,30.00,NNW,338,0.0,0.0,69,0.00,,,0.00,WUHU216HW,2015-05-24 11:36:00,
2015-05-24 06:41:00,59.2,49.1,30.00,SW,225,0.0,0.0,69,0.00,,,0.00,WUHU216HW,2015-05-24 11:41:00,
2015-05-24 06:46:00,59.4,48.9,30.01,WSW,248,0.0,0.2,68,0.00,,,0.00,WUHU216HW,2015-05-24 11:46:00,
2015-05-24 06:51:00,59.6,49.1,30.00,South,180,0.7,1.6,68,0.00,,,0.00,WUHU216HW,2015-05-24 11:51:00,
2015-05-24 06:56:00,59.8,49.2,30.00,SSW,203,1.3,1.6,68,0.00,,,0.00,WUHU216HW,2015-05-24 11:56:00,
2015-05-24 07:01:00,59.9,49.4,30.00,SW,225,1.8,2.7,68,0.00,,,0.00,WUHU216HW,2015-05-24 12:01:00,
2015-05-24 07:06:00,59.9,49.4,30.00,WSW,248,0.2,2.7,68,0.00,,,0.00,WUHU216HW,2015-05-24 12:06:00,
2015-05-24 07:11:00,59.8,49.6,30.00,SW,225,1.1,1.8,69,0.00,,,0.00,WUHU216HW,2015-05-24 12:11:00,
2015-05-24 07:16:00,59.8,49.6,30.00,SW,225,0.0,1.1,69,0.00,,,0.00,WUHU216HW,2015-05-24 12:16:00,
2015-05-24 07:21:00,59.8,50.0,29.99,SW,225,0.4,0.7,70,0.00,,,0.00,WUHU216HW,2015-05-24 12:21:00,
2015-05-24 07:26:00,59.6,49.9,29.99,SSW,203,0.0,0.7,70,0.00,,,0.00,WUHU216HW,2015-05-24 12:26:00,
2015-05-24 07:31:00,59.6,50.2,29.99,SSW,203,0.0,0.7,71,0.00,,,0.00,WUHU216HW,2015-05-24 12:31:00,
2015-05-24 07:36:00,59.4,50.4,29.99,WNW,293,0.0,0.2,72,0.00,,,0.00,WUHU216HW,2015-05-24 12:36:00,
2015-05-24 07:41:00,59.4,50.8,29.99,West,270,0.0,0.2,73,0.00,,,0.00,WUHU216HW,2015-05-24 12:41:00,
2015-05-24 07:46:00,59.4,50.8,29.99,SW,225,0.4,0.4,73,0.00,,,0.00,WUHU216HW,2015-05-24 12:46:00,
2015-05-24 07:51:00,59.4,50.8,29.99,SW,225,0.2,0.4,73,0.00,,,0.00,WUHU216HW,2015-05-24 12:51:00,
2015-05-24 07:56:00,59.6,50.9,29.99,SW,225,0.0,0.4,73,0.00,,,0.00,WUHU216HW,2015-05-24 12:56:00,
2015-05-24 08:01:00,59.8,51.1,29.99,West,270,0.0,0.4,73,0.00,,,0.00,WUHU216HW,2015-05-24 13:01:00,
2015-05-24 08:06:00,59.9,51.3,29.99,SW,225,0.4,0.4,73,0.00,,,0.00,WUHU216HW,2015-05-24 13:06:00,
2015-05-24 08:11:00,59.9,51.7,29.99,SW,225,0.4,0.4,74,0.00,,,0.00,WUHU216HW,2015-05-24 13:11:00,
2015-05-24 08:16:00,60.1,51.8,29.99,SW,225,0.9,0.9,74,0.00,,,0.00,WUHU216HW,2015-05-24 13:16:00,
2015-05-24 08:21:00,60.1,51.8,29.99,SW,225,1.1,1.1,74,0.00,,,0.00,WUHU216HW,2015-05-24 13:21:00,
2015-05-24 08:26:00,60.1,52.2,29.99,SW,225,0.9,1.1,75,0.00,,,0.00,WUHU216HW,2015-05-24 13:26:00,
2015-05-24 08:31:00,60.1,52.2,29.99,SW,225,0.0,1.1,75,0.00,,,0.00,WUHU216HW,2015-05-24 13:31:00,
2015-05-24 08:36:00,60.1,52.2,29.99,SW,225,0.2,1.1,75,0.00,,,0.00,WUHU216HW,2015-05-24 13:36:00,
2015-05-24 08:41:00,60.1,52.2,29.99,SW,225,0.4,1.1,75,0.00,,,0.00,WUHU216HW,2015-05-24 13:41:00,
2015-05-24 08:46:00,60.1,52.6,29.99,SW,225,0.0,1.1,76,0.00,,,0.00,WUHU216HW,2015-05-24 13:46:00,
2015-05-24 08:51:00,60.3,52.7,30.00,SW,225,0.9,0.9,76,0.00,,,0.00,WUHU216HW,2015-05-24 13:51:00,
2015-05-24 08:56:00,60.3,52.7,30.00,SW,225,0.4,0.9,76,0.00,,,0.00,WUHU216HW,2015-05-24 13:56:00,
2015-05-24 09:01:00,60.1,52.6,30.00,SW,225,0.0,0.9,76,0.00,,,0.00,WUHU216HW,2015-05-24 14:01:00,
2015-05-24 09:06:00,60.1,52.6,30.01,SSW,203,1.3,1.3,76,0.00,,,0.00,WUHU216HW,2015-05-24 14:06:00,
2015-05-24 09:11:00,60.1,52.6,30.01,WSW,248,0.7,2.0,76,0.00,,,0.00,WUHU216HW,2015-05-24 14:11:00,
2015-05-24 09:16:00,60.1,52.9,30.01,WSW,248,0.0,2.0,77,0.01,,,0.00,WUHU216HW,2015-05-24 14:16:00,
2015-05-24 09:21:00,60.1,52.9,30.01,SSW,203,0.4,0.4,77,0.01,,,0.00,WUHU216HW,2015-05-24 14:21:00,
2015-05-24 09:26:00,60.1,52.9,30.00,WSW,248,0.4,0.4,77,0.01,,,0.00,WUHU216HW,2015-05-24 14:26:00,
2015-05-24 09:31:00,60.3,53.1,30.00,SW,225,0.0,0.4,77,0.01,,,0.00,WUHU216HW,2015-05-24 14:31:00,
2015-05-24 09:36:00,60.5,53.3,30.00,SSW,203,0.7,1.1,77,0.01,,,0.00,WUHU216HW,2015-05-24 14:36:00,
2015-05-24 09:41:00,60.5,53.3,30.00,SSW,203,0.9,1.1,77,0.01,,,0.00,WUHU216HW,2015-05-24 14:41:00,
2015-05-24 09:46:00,60.5,53.3,30.00,SSW,203,1.1,1.1,77,0.01,,,0.00,WUHU216HW,2015-05-24 14:46:00,
2015-05-24 09:51:00,60.3,53.1,30.01,SSW,203,3.4,3.4,77,0.01,,,0.00,WUHU216HW,2015-05-24 14:51:00,
2015-05-24 09:56:00,60.3,53.5,30.00,North,0,0.0,3.4,78,0.02,,,0.02,WUHU216HW,2015-05-24 14:56:00,
2015-05-24 10:01:00,60.5,53.6,30.00,North,0,0.0,3.4,78,0.02,,,0.02,WUHU216HW,2015-05-24 15:01:00,
2015-05-24 10:06:00,60.5,54.0,29.99,North,0,0.0,0.0,79,0.02,,,0.02,WUHU216HW,2015-05-24 15:06:00,
2015-05-24 10:11:00,60.5,54.0,29.99,North,0,0.0,0.0,79,0.02,,,0.02,WUHU216HW,2015-05-24 15:11:00,
2015-05-24 10:16:00,60.1,53.6,29.99,North,0,0.0,0.0,79,0.02,,,0.02,WUHU216HW,2015-05-24 15:16:00,
2015-05-24 10:21:00,60.1,53.6,30.00,North,0,0.0,0.0,79,0.02,,,0.02,WUHU216HW,2015-05-24 15:21:00,
2015-05-24 10:26:00,59.9,53.5,29.99,North,0,0.0,0.0,79,0.02,,,0.02,WUHU216HW,2015-05-24 15:26:00,
2015-05-24 10:31:00,59.9,53.8,29.99,North,0,0.0,0.0,80,0.02,,,0.02,WUHU216HW,2015-05-24 15:31:00,
2015-05-24 10:36:00,59.8,54.0,30.00,North,0,0.0,0.0,81,0.03,,,0.04,WUHU216HW,2015-05-24 15:36:00,
2015-05-24 10:41:00,59.6,53.8,29.99,North,0,0.0,0.0,81,0.04,,,0.05,WUHU216HW,2015-05-24 15:41:00,
2015-05-24 10:46:00,59.4,53.7,30.00,North,0,0.0,0.0,81,0.04,,,0.05,WUHU216HW,2015-05-24 15:46:00,
2015-05-24 10:51:00,59.4,53.7,29.99,North,0,0.0,0.0,81,0.05,,,0.05,WUHU216HW,2015-05-24 15:51:00,
2015-05-24 10:56:00,59.4,53.7,29.99,North,0,0.0,0.0,81,0.04,,,0.05,WUHU216HW,2015-05-24 15:56:00,
2015-05-24 11:01:00,59.4,53.9,29.99,North,0,0.0,0.0,82,0.04,,,0.05,WUHU216HW,2015-05-24 16:01:00,
2015-05-24 11:06:00,59.4,54.3,29.99,North,0,0.0,0.0,83,0.04,,,0.05,WUHU216HW,2015-05-24 16:06:00,
2015-05-24 11:11:00,59.4,54.3,29.98,North,0,0.0,0.0,83,0.05,,,0.07,WUHU216HW,2015-05-24 16:11:00,
2015-05-24 11:16:00,59.6,54.5,29.98,North,0,0.0,0.0,83,0.04,,,0.07,WUHU216HW,2015-05-24 16:16:00,
2015-05-24 11:21:00,59.8,54.6,29.97,North,0,0.0,0.0,83,0.04,,,0.07,WUHU216HW,2015-05-24 16:21:00,
2015-05-24 11:26:00,59.6,54.7,29.97,North,0,0.0,0.0,84,0.04,,,0.07,WUHU216HW,2015-05-24 16:26:00,
2015-05-24 11:31:00,59.6,54.5,29.97,North,0,0.0,0.0,83,0.04,,,0.07,WUHU216HW,2015-05-24 16:31:00,
2015-05-24 11:36:00,59.4,54.3,29.97,North,0,0.0,0.0,83,0.04,,,0.07,WUHU216HW,2015-05-24 16:36:00,
2015-05-24 11:41:00,59.4,54.5,29.97,North,0,0.0,0.0,84,0.03,,,0.07,WUHU216HW,2015-05-24 16:41:00,
2015-05-24 11:46:00,59.4,54.5,29.96,North,0,0.0,0.0,84,0.02,,,0.07,WUHU216HW,2015-05-24 16:46:00,
2015-05-24 11:51:00,59.4,54.5,29.96,North,0,0.0,0.0,84,0.02,,,0.07,WUHU216HW,2015-05-24 16:51:00,
2015-05-24 11:56:00,59.6,54.7,29.95,North,0,0.0,0.0,84,0.02,,,0.07,WUHU216HW,2015-05-24 16:56:00,
2015-05-24 12:01:00,59.6,54.7,29.95,North,0,0.0,0.0,84,0.02,,,0.07,WUHU216HW,2015-05-24 17:01:00,
2015-05-24 12:06:00,59.4,54.9,29.94,North,0,0.0,0.0,85,0.01,,,0.07,WUHU216HW,2015-05-24 17:06:00,
2015-05-24 12:11:00,59.4,54.9,29.94,North,0,0.0,0.0,85,0.01,,,0.07,WUHU216HW,2015-05-24 17:11:00,
2015-05-24 12:16:00,59.4,54.9,29.94,North,0,0.0,0.0,85,0.01,,,0.07,WUHU216HW,2015-05-24 17:16:00,
2015-05-24 12:21:00,59.2,54.7,29.94,North,0,0.0,0.0,85,0.01,,,0.07,WUHU216HW,2015-05-24 17:21:00,
2015-05-24 12:26:00,59.0,54.5,29.94,North,0,0.0,0.0,85,0.01,,,0.07,WUHU216HW,2015-05-24 17:26:00,
2015-05-24 12:31:00,59.0,54.5,29.94,North,0,0.0,0.0,85,0.01,,,0.07,WUHU216HW,2015-05-24 17:31:00,
2015-05-24 12:32:00,59.2,54.7,29.94,North,0,0.0,0.0,85,0.00,,,0.07,WUHU216HW,2015-05-24 17:32:00,
2015-05-24 12:36:00,59.2,54.7,29.94,North,0,0.0,0.0,85,0.00,,,0.07,WUHU216HW,2015-05-24 17:36:00,
2015-05-24 12:41:00,59.2,54.7,29.94,North,0,0.0,0.0,85,0.00,,,0.07,WUHU216HW,2015-05-24 17:41:00,
2015-05-24 13:00:00,58.9,54.4,29.93,North,0,0.0,0.0,85,0.00,,,0.07,WUHU216HW,2015-05-24 18:00:00,
2015-05-24 13:05:00,58.9,54.4,29.92,North,0,0.0,0.0,85,0.00,,,0.07,WUHU216HW,2015-05-24 18:05:00,
2015-05-24 13:10:00,58.9,54.7,29.92,North,0,0.0,0.0,86,0.00,,,0.07,WUHU216HW,2015-05-24 18:10:00,
2015-05-24 13:15:00,58.9,54.7,29.92,North,0,0.0,0.0,86,0.00,,,0.07,WUHU216HW,2015-05-24 18:15:00,
2015-05-24 13:20:00,58.7,54.6,29.91,North,0,0.0,0.0,86,0.01,,,0.09,WUHU216HW,2015-05-24 18:20:00,
2015-05-24 13:25:00,58.7,54.6,29.91,North,0,0.0,0.0,86,0.01,,,0.09,WUHU216HW,2015-05-24 18:25:00,
2015-05-24 13:30:00,58.7,54.8,29.91,North,0,0.0,0.0,87,0.01,,,0.09,WUHU216HW,2015-05-24 18:30:00,
2015-05-24 13:35:00,58.7,54.6,29.91,North,0,0.0,0.0,86,0.01,,,0.09,WUHU216HW,2015-05-24 18:35:00,
2015-05-24 13:38:00,58.7,54.6,29.91,North,0,0.0,0.0,86,0.01,,,0.09,WUHU216HW,2015-05-24 18:38:00,
2015-05-24 13:40:00,58.7,54.6,29.91,North,0,0.0,0.0,86,0.01,,,0.09,WUHU216HW,2015-05-24 18:40:00,
2015-05-24 13:45:00,58.7,54.6,29.91,North,0,0.0,0.0,86,0.01,,,0.09,WUHU216HW,2015-05-24 18:45:00,
2015-05-24 14:00:00,58.7,54.8,29.89,North,0,0.0,0.0,87,0.03,,,0.09,WUHU216HW,2015-05-24 19:00:00,
2015-05-24 14:05:00,58.7,54.8,29.89,North,0,0.0,0.0,87,0.04,,,0.12,WUHU216HW,2015-05-24 19:05:00,
2015-05-24 14:10:00,58.7,54.8,29.89,North,0,0.0,0.0,87,0.04,,,0.12,WUHU216HW,2015-05-24 19:10:00,
2015-05-24 14:15:00,58.7,54.8,29.88,North,0,0.0,0.0,87,0.04,,,0.12,WUHU216HW,2015-05-24 19:15:00,
2015-05-24 14:20:00,58.5,54.6,29.89,North,0,0.0,0.0,87,0.04,,,0.13,WUHU216HW,2015-05-24 19:20:00,
2015-05-24 14:25:00,58.5,54.6,29.88,North,0,0.0,0.0,87,0.04,,,0.13,WUHU216HW,2015-05-24 19:25:00,
2015-05-24 14:30:00,58.5,54.6,29.88,North,0,0.0,0.0,87,0.05,,,0.14,WUHU216HW,2015-05-24 19:30:00,
2015-05-24 14:35:00,58.5,54.6,29.88,North,0,0.0,0.0,87,0.06,,,0.15,WUHU216HW,2015-05-24 19:35:00,
2015-05-24 14:40:00,58.5,54.6,29.89,North,0,0.0,0.0,87,0.09,,,0.18,WUHU216HW,2015-05-24 19:40:00,
2015-05-24 14:45:00,58.3,54.5,29.89,North,0,0.0,0.0,87,0.09,,,0.19,WUHU216HW,2015-05-24 19:45:00,
2015-05-24 14:50:00,58.3,54.5,29.88,North,0,0.0,0.0,87,0.10,,,0.20,WUHU216HW,2015-05-24 19:50:00,
2015-05-24 14:55:00,58.3,54.5,29.87,North,0,0.0,0.0,87,0.09,,,0.20,WUHU216HW,2015-05-24 19:55:00,
2015-05-24 15:00:00,58.3,54.8,29.86,North,0,0.0,0.0,88,0.09,,,0.20,WUHU216HW,2015-05-24 20:00:00,
2015-05-24 15:05:00,58.5,55.0,29.86,East,90,0.9,2.7,88,0.09,,,0.21,WUHU216HW,2015-05-24 20:05:00,
2015-05-24 15:10:00,58.3,54.8,29.86,NE,45,2.5,2.7,88,0.09,,,0.21,WUHU216HW,2015-05-24 20:10:00,
2015-05-24 15:15:00,58.1,54.3,29.85,NNE,23,1.3,2.5,87,0.08,,,0.21,WUHU216HW,2015-05-24 20:15:00,
2015-05-24 15:20:00,58.1,54.3,29.85,NNE,23,1.6,1.8,87,0.08,,,0.21,WUHU216HW,2015-05-24 20:20:00,
2015-05-24 15:25:00,58.1,54.6,29.85,West,270,1.8,2.2,88,0.07,,,0.21,WUHU216HW,2015-05-24 20:25:00,
2015-05-24 15:30:00,58.1,54.6,29.85,North,0,2.5,2.5,88,0.08,,,0.22,WUHU216HW,2015-05-24 20:30:00,
2015-05-24 15:35:00,58.0,54.5,29.84,North,0,1.8,2.7,88,0.07,,,0.23,WUHU216HW,2015-05-24 20:35:00,
2015-05-24 15:40:00,58.0,54.5,29.84,NNW,338,3.1,3.4,88,0.05,,,0.23,WUHU216HW,2015-05-24 20:40:00,
2015-05-24 15:45:00,58.0,54.5,29.84,ENE,68,1.6,4.0,88,0.04,,,0.24,WUHU216HW,2015-05-24 20:45:00,
2015-05-24 15:50:00,58.1,54.6,29.84,NNE,23,1.1,4.0,88,0.04,,,0.24,WUHU216HW,2015-05-24 20:50:00,
2015-05-24 15:55:00,58.1,54.6,29.84,NNE,23,2.5,2.7,88,0.05,,,0.25,WUHU216HW,2015-05-24 20:55:00,
2015-05-24 16:00:00,58.0,54.5,29.84,North,0,2.0,2.7,88,0.06,,,0.26,WUHU216HW,2015-05-24 21:00:00,
2015-05-24 16:05:00,58.0,54.5,29.84,NNE,23,2.0,2.5,88,0.06,,,0.27,WUHU216HW,2015-05-24 21:05:00,
2015-05-24 16:10:00,58.0,54.7,29.84,NNE,23,1.8,2.5,89,0.06,,,0.27,WUHU216HW,2015-05-24 21:10:00,
2015-05-24 16:15:00,58.3,55.4,29.83,North,0,0.7,2.5,90,0.06,,,0.27,WUHU216HW,2015-05-24 21:15:00,
2015-05-24 16:20:00,58.7,55.8,29.83,ENE,68,1.6,2.5,90,0.07,,,0.28,WUHU216HW,2015-05-24 21:20:00,
2015-05-24 16:25:00,58.7,55.8,29.82,NE,45,1.8,2.9,90,0.06,,,0.28,WUHU216HW,2015-05-24 21:25:00,
2015-05-24 16:26:00,58.7,55.8,29.82,ENE,68,2.5,2.5,90,0.06,,,0.28,WUHU216HW,2015-05-24 21:26:00,
2015-05-24 16:30:00,58.7,55.8,29.82,ENE,68,2.5,2.9,90,0.06,,,0.28,WUHU216HW,2015-05-24 21:30:00,
2015-05-24 16:35:00,58.7,55.8,29.82,ENE,68,2.5,2.5,90,0.06,,,0.28,WUHU216HW,2015-05-24 21:35:00,
2015-05-24 16:56:00,59.0,56.2,29.81,ENE,68,2.0,2.0,90,0.02,,,0.28,WUHU216HW,2015-05-24 21:56:00,
2015-05-24 17:01:00,59.0,56.2,29.81,SSE,158,2.2,2.7,90,0.01,,,0.28,WUHU216HW,2015-05-24 22:01:00,
2015-05-24 17:06:00,59.0,56.2,29.81,NE,45,1.3,2.7,90,0.01,,,0.28,WUHU216HW,2015-05-24 22:06:00,
2015-05-24 17:11:00,59.0,56.2,29.81,East,90,2.0,2.9,90,0.01,,,0.28,WUHU216HW,2015-05-24 22:11:00,
2015-05-24 17:16:00,59.0,56.2,29.80,NE,45,2.7,2.9,90,0.00,,,0.28,WUHU216HW,2015-05-24 22:16:00,
2015-05-24 17:21:00,59.0,56.2,29.80,North,0,0.0,2.7,90,0.00,,,0.28,WUHU216HW,2015-05-24 22:21:00,
2015-05-24 17:22:00,59.0,56.2,29.80,North,0,0.0,0.0,90,0.00,,,0.28,WUHU216HW,2015-05-24 22:22:00,
2015-05-24 17:26:00,59.0,56.2,29.80,North,0,0.0,2.7,90,0.00,,,0.28,WUHU216HW,2015-05-24 22:26:00,
2015-05-24 17:31:00,59.0,56.2,29.80,North,0,0.0,0.0,90,0.00,,,0.28,WUHU216HW,2015-05-24 22:31:00,
2015-05-24 17:52:00,58.0,54.5,29.79,North,0,0.0,0.0,88,0.03,,,0.28,WUHU216HW,2015-05-24 22:52:00,
2015-05-24 17:57:00,57.8,54.5,29.79,North,0,0.0,0.0,89,0.03,,,0.31,WUHU216HW,2015-05-24 22:57:00,
2015-05-24 18:02:00,57.6,54.4,29.79,North,0,0.0,0.0,89,0.05,,,0.32,WUHU216HW,2015-05-24 23:02:00,
2015-05-24 18:07:00,57.6,54.4,29.78,North,0,0.0,0.0,89,0.05,,,0.33,WUHU216HW,2015-05-24 23:07:00,
2015-05-24 18:12:00,57.4,54.2,29.78,North,0,0.0,0.0,89,0.05,,,0.33,WUHU216HW,2015-05-24 23:12:00,
2015-05-24 18:17:00,57.4,54.2,29.78,North,0,0.0,0.0,89,0.05,,,0.33,WUHU216HW,2015-05-24 23:17:00,
2015-05-24 18:22:00,57.2,54.0,29.77,North,0,0.0,0.0,89,0.05,,,0.33,WUHU216HW,2015-05-24 23:22:00,
2015-05-24 18:27:00,57.2,54.0,29.77,North,0,0.0,0.0,89,0.06,,,0.34,WUHU216HW,2015-05-24 23:27:00,
2015-05-24 18:32:00,57.2,54.0,29.77,North,0,0.0,0.0,89,0.06,,,0.34,WUHU216HW,2015-05-24 23:32:00,
2015-05-24 18:37:00,57.2,54.0,29.77,North,0,0.0,0.0,89,0.06,,,0.34,WUHU216HW,2015-05-24 23:37:00,
2015-05-24 18:42:00,57.2,54.0,29.76,NNW,338,2.2,4.3,89,0.05,,,0.34,WUHU216HW,2015-05-24 23:42:00,
2015-05-24 18:47:00,57.2,54.0,29.77,NNE,23,2.5,4.3,89,0.09,,,0.37,WUHU216HW,2015-05-24 23:47:00,
2015-05-24 18:52:00,57.1,53.8,29.79,NE,45,0.2,2.5,89,0.09,,,0.40,WUHU216HW,2015-05-24 23:52:00,
2015-05-24 19:02:00,57.2,54.0,29.79,NW,315,0.4,2.0,89,0.07,,,0.40,WUHU216HW,2015-05-25 00:02:00,
2015-05-24 19:07:00,57.4,54.2,29.78,North,0,0.7,2.0,89,0.07,,,0.40,WUHU216HW,2015-05-25 00:07:00,
2015-05-24 19:12:00,57.4,54.2,29.78,SSW,203,0.0,1.1,89,0.07,,,0.40,WUHU216HW,2015-05-25 00:12:00,
2015-05-24 19:17:00,57.4,54.2,29.78,NNE,23,0.7,1.6,89,0.07,,,0.40,WUHU216HW,2015-05-25 00:17:00,
2015-05-24 19:22:00,57.4,54.2,29.78,NE,45,0.9,1.6,89,0.07,,,0.40,WUHU216HW,2015-05-25 00:22:00,
2015-05-24 19:27:00,57.2,54.0,29.78,NNE,23,0.2,1.6,89,0.06,,,0.40,WUHU216HW,2015-05-25 00:27:00,
2015-05-24 19:32:00,57.2,54.0,29.78,NE,45,2.2,2.2,89,0.06,,,0.40,WUHU216HW,2015-05-25 00:32:00,
2015-05-24 19:37:00,57.2,54.0,29.78,NNW,338,0.4,2.2,89,0.06,,,0.40,WUHU216HW,2015-05-25 00:37:00,
2015-05-24 19:39:00,57.2,54.0,29.77,NNE,23,1.6,1.6,89,0.07,,,0.40,WUHU216HW,2015-05-25 00:39:00,
2015-05-24 19:42:00,57.2,54.0,29.77,NNE,23,1.6,2.0,89,0.07,,,0.40,WUHU216HW,2015-05-25 00:42:00,
2015-05-24 19:47:00,57.2,54.0,29.77,NNE,23,1.6,2.0,89,0.07,,,0.40,WUHU216HW,2015-05-25 00:47:00,
2015-05-24 20:00:00,57.1,53.8,29.77,South,180,2.2,2.2,89,0.09,,,0.41,WUHU216HW,2015-05-25 01:00:00,
2015-05-24 20:05:00,57.1,53.8,29.77,NNE,23,2.7,2.9,89,0.10,,,0.50,WUHU216HW,2015-05-25 01:05:00,
2015-05-24 20:10:00,56.9,53.6,29.77,NNE,23,1.8,3.1,89,0.11,,,0.51,WUHU216HW,2015-05-25 01:10:00,
2015-05-24 20:15:00,56.9,53.6,29.76,ESE,113,1.1,3.1,89,0.11,,,0.51,WUHU216HW,2015-05-25 01:15:00,
2015-05-24 20:20:00,56.9,53.6,29.76,North,0,1.8,2.2,89,0.11,,,0.51,WUHU216HW,2015-05-25 01:20:00,
2015-05-24 20:25:00,56.7,53.5,29.76,South,180,2.0,2.2,89,0.11,,,0.51,WUHU216HW,2015-05-25 01:25:00,
2015-05-24 20:30:00,56.7,53.8,29.76,NNE,23,1.8,2.5,90,0.11,,,0.51,WUHU216HW,2015-05-25 01:30:00,
2015-05-24 20:35:00,56.5,53.6,29.76,North,0,1.8,2.5,90,0.11,,,0.51,WUHU216HW,2015-05-25 01:35:00,
2015-05-24 20:40:00,56.5,53.6,29.76,SE,135,1.8,3.6,90,0.10,,,0.51,WUHU216HW,2015-05-25 01:40:00,
2015-05-24 20:45:00,56.5,53.6,29.75,ESE,113,1.1,3.6,90,0.10,,,0.51,WUHU216HW,2015-05-25 01:45:00,
2015-05-24 20:50:00,56.5,53.6,29.75,NNE,23,0.9,2.2,90,0.09,,,0.51,WUHU216HW,2015-05-25 01:50:00,
2015-05-24 20:55:00,56.5,53.6,29.75,SSW,203,2.5,2.5,90,0.07,,,0.51,WUHU216HW,2015-05-25 01:55:00,
2015-05-24 21:00:00,56.5,53.6,29.76,NNE,23,1.1,2.5,90,0.02,,,0.51,WUHU216HW,2015-05-25 02:00:00,
2015-05-24 21:05:00,56.5,53.6,29.75,NNE,23,1.1,2.0,90,0.00,,,0.51,WUHU216HW,2015-05-25 02:05:00,
2015-05-24 21:10:00,56.5,53.6,29.75,NW,315,1.8,2.0,90,0.00,,,0.51,WUHU216HW,2015-05-25 02:10:00,
2015-05-24 21:15:00,56.5,53.6,29.75,South,180,2.7,2.7,90,0.00,,,0.51,WUHU216HW,2015-05-25 02:15:00,
2015-05-24 21:20:00,56.5,53.6,29.74,North,0,2.5,2.7,90,0.00,,,0.51,WUHU216HW,2015-05-25 02:20:00,
2015-05-24 21:25:00,56.5,53.6,29.74,NNE,23,1.6,2.5,90,0.00,,,0.51,WUHU216HW,2015-05-25 02:25:00,
2015-05-24 21:30:00,56.7,53.8,29.74,NE,45,0.9,2.5,90,0.00,,,0.51,WUHU216HW,2015-05-25 02:30:00,
2015-05-24 21:35:00,56.7,53.8,29.74,NNE,23,1.1,2.5,90,0.00,,,0.51,WUHU216HW,2015-05-25 02:35:00,
2015-05-24 21:40:00,56.7,53.8,29.74,East,90,0.2,1.8,90,0.00,,,0.51,WUHU216HW,2015-05-25 02:40:00,
2015-05-24 21:45:00,56.9,54.0,29.74,North,0,0.4,1.8,90,0.00,,,0.51,WUHU216HW,2015-05-25 02:45:00,
2015-05-24 21:50:00,56.9,54.0,29.74,North,0,0.7,1.1,90,0.00,,,0.51,WUHU216HW,2015-05-25 02:50:00,
2015-05-24 21:55:00,56.9,54.0,29.74,NNE,23,0.0,1.1,90,0.00,,,0.51,WUHU216HW,2015-05-25 02:55:00,
2015-05-24 22:00:00,57.1,54.2,29.75,SSW,203,0.4,1.1,90,0.00,,,0.51,WUHU216HW,2015-05-25 03:00:00,
2015-05-24 22:05:00,57.1,54.2,29.75,North,0,0.7,0.9,90,0.01,,,0.51,WUHU216HW,2015-05-25 03:05:00,
2015-05-24 22:10:00,57.2,54.4,29.76,North,0,0.0,0.9,90,0.02,,,0.53,WUHU216HW,2015-05-25 03:10:00,
2015-05-24 22:15:00,57.2,54.6,29.75,North,0,0.0,0.7,91,0.03,,,0.54,WUHU216HW,2015-05-25 03:15:00,
2015-05-24 22:20:00,57.4,54.8,29.75,West,270,0.4,0.4,91,0.03,,,0.54,WUHU216HW,2015-05-25 03:20:00,
2015-05-24 22:25:00,57.6,54.7,29.75,SSE,158,1.6,1.6,90,0.03,,,0.54,WUHU216HW,2015-05-25 03:25:00,
2015-05-24 22:30:00,57.6,54.7,29.75,ENE,68,1.3,1.6,90,0.03,,,0.54,WUHU216HW,2015-05-25 03:30:00,
2015-05-24 22:35:00,57.6,54.7,29.74,NNE,23,0.4,1.6,90,0.03,,,0.54,WUHU216HW,2015-05-25 03:35:00,
2015-05-24 22:37:00,57.6,54.7,29.74,NNE,23,1.6,1.6,90,0.03,,,0.54,WUHU216HW,2015-05-25 03:37:00,
2015-05-24 22:40:00,57.6,54.7,29.74,NNE,23,1.6,1.6,90,0.03,,,0.54,WUHU216HW,2015-05-25 03:40:00,
2015-05-24 22:45:00,57.6,54.7,29.74,NNE,23,1.6,1.6,90,0.03,,,0.54,WUHU216HW,2015-05-25 03:45:00,